Regional Weather Roundup
Issued by NWS Sioux Falls, SD

Home | Current Version | Previous Version | Graphics & Text | Print | Product List | Glossary Off
Versions: 1 2 3 4 5 6 7 8 9 10 11 12 13 14 15 16 17 18 19 20 21 22 23 24 25 26 27 28 29 30 31 32 33 34 35 36 37 38 39 40 41 42 43 44 45 46 47 48 49 50

000
ASUS43 KFSD 210810
RWRFSD

WEATHER ROUNDUP FOR SE SOUTH DAKOTA/SW MINNESOTA/NW IOWA
NATIONAL WEATHER SERVICE SIOUX FALLS SD
200 AM CST FRI NOV 21 2014

NOTE: "FAIR" INDICATES FEW OR NO CLOUDS BELOW 12,000 FEET WITH NO
SIGNIFICANT WEATHER AND OR OBSTRUCTIONS TO VISIBILITY.


SDZ038>040-050-052>070-210900-
SOUTHEAST SOUTH DAKOTA

CITY           SKY/WX    TMP DP  RH WIND       PRES   REMARKS
CHAMBERLAIN    PTCLDY    16  13  89 SE7       29.99F WCI   6
HURON          PTCLDY    14   9  80 S15G23    30.06F WCI  -1
MADISON        FAIR      10   9  92 S13       30.10F WCI  -5
MITCHELL       PTCLDY    16  12  84 SE17      30.11F WCI   0
SIOUX FALLS    PTCLDY    15   9  76 S12       30.15F WCI   2
WINNER         FAIR      30  20  66 S26G36    29.93F WCI  16
YANKTON        PTCLDY    16  12  86 SE7       30.17F WCI   6
$$

MNZ071-072-080-081-089-090-097-098-210900-
SOUTHWEST MINNESOTA

CITY           SKY/WX    TMP DP  RH WIND       PRES   REMARKS
FAIRMONT       PTCLDY     0  -4  85 S7        30.22F WCI -13
JACKSON        MOCLDY     9   5  85 S10       30.20F WCI  -6
LUVERNE        PTCLDY     9   3  78 S5        30.18F WCI   0
MARSHALL       PTCLDY     9   3  78 S8        30.15F WCI  -4
MONTEVIDEO     PTCLDY     5   3  92 S8        30.17F WCI  -8
PIPESTONE      PTCLDY    10   7  85 S14       30.12F WCI  -5
REDWOOD FALLS  CLEAR      2  -2  83 SE8       30.21S WCI -12
TRACY          PTCLDY    14   8  79 S15G22    30.15F WCI  -2
WINDOM         PTCLDY     9   7  92 S6        30.18F WCI  -1
WORTHINGTON    PTCLDY    10   9  92 S10       30.17F WCI  -3
$$

IAZ001>003-012>014-020>022-031-032-NEZ013-014-SDZ071-210900-
NORTHWEST IOWA

CITY           SKY/WX    TMP DP  RH WIND       PRES   REMARKS
CHEROKEE       PTCLDY     7   5  92 S5        30.24S WCI  -2
DENISON        CLEAR     18  10  73 SE9       30.23F WCI   6
ESTHERVILLE    MOCLDY     2  -1  88 S8        30.23F WCI -12
LE MARS        PTCLDY    14  10  85 S8        30.23S WCI   3
ORANGE CITY    PTCLDY    12   9  85 S7        30.19F WCI   2
SHELDON        CLEAR     12   7  79 S9        30.19S WCI   0
SIOUX CITY     PTCLDY    17  11  77 SE10      30.23F WCI   5
SPENCER        PTCLDY     6   2  83 S9        30.23F WCI  -8
STORM LAKE     PTCLDY    10   5  79 S9        30.23S WCI  -2
$$

ABBREVIATIONS USED IN REMARKS
   TC - TEMPERATURE IN CELSIUS
  WCI - WIND CHILL INDEX
   HX - HEAT INDEX
  VSB - VISIBILITY




USA.gov is the U.S. government's official web portal to all federal, state and local government web resources and services.